Tracking 18823 objects as of 24-October-2017
HD Live streaming from Space Station
objects crossing your sky now

50 SAT

Track 50 SAT now!
10-day predictions
50 SAT is classified as:


NORAD ID: 39436
Int'l Code: 2013-066W
Perigee: 430.6 km
Apogee: 441.0 km
Inclination: 97.7 °
Period: 93.1 minutes
Semi major axis: 6806 km
RCS: Unknown
Launch date: November 21, 2013
Source: (TBD)
Launch site: Orenburg, Russia (OREN)
Uplink (MHz):
Downlink (MHz): 437.505
Beacon (MHz): 437.505
Mode: 9600bps GFSK RTTY CW
Call sign:
Status: Active

aabbcc
Your satellite tracking list
Your tracking list is empty





NASA's NSSDC Master Catalog

Two Line Element Set (TLE):
1 39436U 13066W   17296.88062510 +.00047093 +00000-0 +96443-3 0  9998
2 39436 097.7140 049.7911 0007612 333.2321 026.8533 15.45922261215315
Source of the keplerian elements: Caltech